Location: Cucq
(50.4773°N, 1.6202°E)
Time: 06:33:28
(UTC+00:00)

SL-16 R/B - Pass Details

Date: 07 August 2020
Orbit: 840 x 849 km, 71.0° (Epoch: 23 September)

Event Time Altitude Azimuth Distance (km) Brightness Sun altitude
Rises 03:42:39 0° 319° (NW) 3,423 5.3 -7.3°
Reaches altitude 10° 03:46:00 10° 299° (WNW) 2,482 4.4 -6.8°
Maximum altitude 03:49:23 16° 262° (W) 2,059 3.7 -6.4°
Drops below altitude 10° 03:52:46 10° 225° (SW) 2,469 4.0 -6.0°
Enters shadow 03:54:54 - 211° (SSW) 3,029 4.5 -5.7°
